• In Deutschland
  • Länderverzeichnis
  • Für 7 Tage
  • Wassertemperatur
  • Satellitenkarten
  • Wetterkarte
  • Widgets
  • user-avatar
    Anmelden

    Stündliche Wetter Lennestadt

    Heute, 26 April, Donnerstag

    Zeit Temperatur Niederschläge Wind Luftdruck Luftfeuchtigkeit
    00:00 +5°C° 0 mm 3 m/S 727 mmHg 87%
    01:00 +4°C° 0 mm 3 m/S 728 mmHg 87%
    02:00 +4°C° 0 mm 3 m/S 728 mmHg 88%
    03:00 +4°C° 0 mm 3 m/S 728 mmHg 88%
    04:00 +4°C° 0 mm 4 m/S 728 mmHg 89%
    05:00 +4°C° 0,1 mm 4 m/S 728 mmHg 87%
    06:00 +5°C° 0,1 mm 5 m/S 728 mmHg 85%
    07:00 +5°C° 0 mm 5 m/S 728 mmHg 83%
    08:00 +6°C° 0,1 mm 5 m/S 729 mmHg 80%
    09:00 +6°C° 0,1 mm 5 m/S 729 mmHg 77%
    10:00 +7°C° 0,1 mm 5 m/S 729 mmHg 74%
    11:00 +8°C° 0,1 mm 5 m/S 729 mmHg 67%
    12:00 +10°C° 0,1 mm 5 m/S 730 mmHg 60%
    13:00 +11°C° 0,1 mm 6 m/S 730 mmHg 53%
    14:00 +12°C° 0,2 mm 5 m/S 730 mmHg 53%
    15:00 +12°C° 0,2 mm 5 m/S 729 mmHg 53%
    16:00 +12°C° 0,2 mm 5 m/S 729 mmHg 53%
    17:00 +11°C° 0,1 mm 4 m/S 729 mmHg 58%
    18:00 +10°C° 0,1 mm 3 m/S 729 mmHg 64%
    19:00 +9°C° 0,1 mm 3 m/S 730 mmHg 70%
    20:00 +8°C° 0 mm 2 m/S 730 mmHg 74%
    21:00 +6°C° 0 mm 2 m/S 730 mmHg 79%
    22:00 +6°C° 0 mm 1 m/S 730 mmHg 83%
    23:00 +6°C° 0 mm 1 m/S 730 mmHg 85%

    Morgen, 27 April, Freitag

    Zeit Temperatur Niederschläge Wind Luftdruck Luftfeuchtigkeit
    00:00 +5°C° 0 mm 1 m/S 730 mmHg 86%
    01:00 +5°C° 0 mm 1 m/S 730 mmHg 88%
    02:00 +5°C° 0 mm 1 m/S 729 mmHg 88%
    03:00 +5°C° 0 mm 1 m/S 729 mmHg 89%
    04:00 +4°C° 0 mm 1 m/S 729 mmHg 89%
    05:00 +5°C° 0 mm 1 m/S 729 mmHg 85%
    06:00 +6°C° 0 mm 1 m/S 729 mmHg 81%
    07:00 +7°C° 0 mm 1 m/S 728 mmHg 77%
    08:00 +8°C° 0 mm 2 m/S 728 mmHg 69%
    09:00 +10°C° 0 mm 2 m/S 728 mmHg 61%
    10:00 +13°C° 0 mm 2 m/S 728 mmHg 53%
    11:00 +13°C° 0 mm 3 m/S 727 mmHg 50%
    12:00 +14°C° 0 mm 3 m/S 727 mmHg 47%
    13:00 +16°C° 0 mm 3 m/S 726 mmHg 45%
    14:00 +16°C° 0 mm 3 m/S 726 mmHg 45%
    15:00 +17°C° 0 mm 3 m/S 725 mmHg 44%
    16:00 +17°C° 0 mm 3 m/S 725 mmHg 44%
    17:00 +16°C° 0 mm 3 m/S 724 mmHg 51%
    18:00 +15°C° 0 mm 2 m/S 724 mmHg 58%
    19:00 +14°C° 0 mm 2 m/S 723 mmHg 64%
    20:00 +13°C° 0 mm 2 m/S 724 mmHg 68%
    21:00 +12°C° 0 mm 2 m/S 724 mmHg 72%
    22:00 +10°C° 0 mm 3 m/S 724 mmHg 76%
    23:00 +9°C° 0 mm 3 m/S 724 mmHg 80%

    übermorgen, 28 April, Samstag

    Zeit Temperatur Niederschläge Wind Luftdruck Luftfeuchtigkeit
    00:00 +9°C° 0 mm 3 m/S 724 mmHg 84%
    01:00 +9°C° 0 mm 3 m/S 724 mmHg 87%
    02:00 +8°C° 0 mm 3 m/S 724 mmHg 88%
    03:00 +7°C° 0 mm 3 m/S 725 mmHg 89%
    04:00 +6°C° 0 mm 4 m/S 725 mmHg 89%
    05:00 +6°C° 0 mm 4 m/S 725 mmHg 86%
    06:00 +6°C° 0 mm 4 m/S 725 mmHg 83%
    07:00 +6°C° 0 mm 4 m/S 725 mmHg 80%
    08:00 +7°C° 0 mm 4 m/S 726 mmHg 76%
    09:00 +8°C° 0 mm 4 m/S 726 mmHg 73%
    10:00 +10°C° 0 mm 4 m/S 727 mmHg 70%
    11:00 +10°C° 0 mm 4 m/S 727 mmHg 68%
    12:00 +11°C° 0 mm 4 m/S 727 mmHg 67%
    13:00 +12°C° 0 mm 3 m/S 727 mmHg 65%
    14:00 +12°C° 0,1 mm 3 m/S 727 mmHg 64%
    15:00 +13°C° 0,1 mm 3 m/S 727 mmHg 62%
    16:00 +13°C° 0,1 mm 3 m/S 727 mmHg 60%
    17:00 +13°C° 0 mm 2 m/S 727 mmHg 65%
    18:00 +13°C° 0 mm 1 m/S 727 mmHg 70%
    19:00 +12°C° 0 mm 1 m/S 727 mmHg 76%
    20:00 +11°C° 0 mm 1 m/S 727 mmHg 79%
    21:00 +10°C° 0 mm 1 m/S 727 mmHg 82%
    22:00 +9°C° 0 mm 1 m/S 727 mmHg 86%
    23:00 +9°C° 0,2 mm 1 m/S 727 mmHg 87%

    29 April, Sonntag

    Zeit Temperatur Niederschläge Wind Luftdruck Luftfeuchtigkeit
    00:00 +9°C° 0,2 mm 1 m/S 726 mmHg 88%
    01:00 +8°C° 0,2 mm 1 m/S 726 mmHg 90%
    02:00 +8°C° 1 mm 1 m/S 726 mmHg 91%
    03:00 +8°C° 1 mm 1 m/S 725 mmHg 92%
    04:00 +7°C° 1 mm 2 m/S 725 mmHg 93%
    05:00 +8°C° 0,7 mm 2 m/S 725 mmHg 93%
    06:00 +8°C° 0,7 mm 2 m/S 725 mmHg 92%
    07:00 +8°C° 0,7 mm 3 m/S 724 mmHg 91%
    08:00 +10°C° 0,6 mm 3 m/S 724 mmHg 88%
    09:00 +11°C° 0,6 mm 3 m/S 724 mmHg 85%
    10:00 +13°C° 0,6 mm 4 m/S 724 mmHg 82%
    11:00 +16°C° 0,1 mm 3 m/S 723 mmHg 75%
    12:00 +18°C° 0,1 mm 3 m/S 723 mmHg 68%
    13:00 +20°C° 0,1 mm 3 m/S 723 mmHg 61%
    14:00 +20°C° 0,4 mm 3 m/S 722 mmHg 64%
    15:00 +20°C° 0,4 mm 3 m/S 722 mmHg 67%
    16:00 +20°C° 0,4 mm 2 m/S 721 mmHg 70%
    17:00 +18°C° 0,5 mm 2 m/S 720 mmHg 75%
    18:00 +17°C° 0,5 mm 2 m/S 720 mmHg 81%
    19:00 +16°C° 0,5 mm 2 m/S 719 mmHg 87%
    20:00 +15°C° 1 mm 2 m/S 719 mmHg 90%
    21:00 +14°C° 1 mm 2 m/S 719 mmHg 93%
    22:00 +13°C° 1 mm 2 m/S 718 mmHg 96%
    23:00 +13°C° 1,1 mm 2 m/S 718 mmHg 96%

    30 April, Montag

    Zeit Temperatur Niederschläge Wind Luftdruck Luftfeuchtigkeit
    00:00 +13°C° 1,1 mm 2 m/S 718 mmHg 96%
    01:00 +13°C° 1,1 mm 2 m/S 718 mmHg 96%
    02:00 +11°C° 0,6 mm 4 m/S 718 mmHg 95%
    03:00 +10°C° 0,6 mm 5 m/S 719 mmHg 93%
    04:00 +9°C° 0,6 mm 6 m/S 719 mmHg 91%
    05:00 +8°C° 0 mm 6 m/S 719 mmHg 89%
    06:00 +8°C° 0 mm 6 m/S 720 mmHg 87%
    07:00 +7°C° 0 mm 6 m/S 720 mmHg 85%
    08:00 +7°C° 0 mm 6 m/S 721 mmHg 81%
    09:00 +7°C° 0 mm 6 m/S 721 mmHg 76%
    10:00 +7°C° 0 mm 6 m/S 722 mmHg 72%
    11:00 +8°C° 0 mm 7 m/S 722 mmHg 69%
    12:00 +8°C° 0 mm 7 m/S 722 mmHg 67%
    13:00 +9°C° 0 mm 7 m/S 722 mmHg 64%
    14:00 +9°C° 0 mm 8 m/S 722 mmHg 64%
    15:00 +9°C° 0 mm 8 m/S 722 mmHg 64%
    16:00 +9°C° 0 mm 8 m/S 722 mmHg 64%
    17:00 +7°C° 0 mm 8 m/S 722 mmHg 65%
    18:00 +6°C° 0 mm 8 m/S 723 mmHg 67%
    19:00 +5°C° 0 mm 8 m/S 723 mmHg 68%
    20:00 +5°C° 0 mm 7 m/S 724 mmHg 71%
    21:00 +4°C° 0 mm 6 m/S 725 mmHg 74%
    22:00 +3°C° 0 mm 5 m/S 726 mmHg 77%
    23:00 +3°C° 0 mm 4 m/S 726 mmHg 79%

    1 Mai, Dienstag

    Zeit Temperatur Niederschläge Wind Luftdruck Luftfeuchtigkeit
    00:00 +3°C° 0 mm 4 m/S 726 mmHg 81%
    01:00 +3°C° 0 mm 4 m/S 727 mmHg 82%
    02:00 +1°C° 0 mm 4 m/S 727 mmHg 84%
    03:00 +2°C° 0 mm 3 m/S 727 mmHg 87%
    04:00 +1°C° 0 mm 3 m/S 728 mmHg 89%
    05:00 +2°C° 0 mm 3 m/S 728 mmHg 85%
    06:00 +2°C° 0 mm 3 m/S 728 mmHg 82%
    07:00 +3°C° 0 mm 3 m/S 728 mmHg 79%
    08:00 +4°C° 0 mm 3 m/S 729 mmHg 72%
    09:00 +7°C° 0 mm 3 m/S 729 mmHg 64%
    10:00 +8°C° 0 mm 3 m/S 729 mmHg 56%
    11:00 +9°C° 0 mm 3 m/S 729 mmHg 53%
    12:00 +10°C° 0 mm 3 m/S 729 mmHg 49%
    13:00 +11°C° 0 mm 3 m/S 729 mmHg 46%
    14:00 +11°C° 0 mm 3 m/S 729 mmHg 46%
    15:00 +12°C° 0 mm 3 m/S 729 mmHg 46%
    16:00 +12°C° 0 mm 3 m/S 729 mmHg 46%
    17:00 +12°C° 0 mm 2 m/S 729 mmHg 51%
    18:00 +10°C° 0 mm 2 m/S 729 mmHg 56%
    19:00 +10°C° 0 mm 1 m/S 729 mmHg 62%
    20:00 +8°C° 0 mm 1 m/S 729 mmHg 66%
    21:00 +7°C° 0 mm 1 m/S 729 mmHg 70%
    22:00 +5°C° 0 mm 1 m/S 729 mmHg 74%
    23:00 +5°C° 0 mm 1 m/S 729 mmHg 76%
    Mehr zeigen